Alexandria Esle, LA

9:47 PM CST on December 12, 2017 (GMT -0600)
Alexandria Esler Regional

Weather History for KESF - June, 2013

Change the Weather History Date:

Sunday, June 30, 2013

  Actual Average Record
Temperature  
Mean Temperature 78 °F -  
Max Temperature 93 °F 91 °F 100 °F (1998)
Min Temperature 66 °F 71 °F 61 °F (1974)
Cooling Degree Days 14    
Growing Degree Days 28 (Base 50)    
Moisture  
Dew Point 63 °F    
Average Humidity 65    
Maximum Humidity 94    
Minimum Humidity 30    
Precipitation  
Precipitation 0.00 in - - ()
Sea Level Pressure  
Sea Level Pressure 29.79 in    
Wind  
Wind Speed 2 mph (NW)    
Max Wind Speed 10 mph    
Max Gust Speed -    
Visibility 8 miles    
Events      
Averages and records for this station are not official NWS values.
T = Trace of Precipitation, MM = Missing Value Source: NWS Daily Summary

Daily Weather History Graph

Daily Weather History Graph

Search for Another Location

Airport or City:

Trip Planner

Search our weather history database for the weather conditions in past years. The results will help you decide how hot, cold, wet, or windy it might be!

Date:

Astronomy

Jun. 30, 2013 Rise Set
Actual Time 6:08 AM CDT 8:17 PM CDT
Civil Twilight 5:40 AM CDT 8:45 PM CDT
Nautical Twilight 5:06 AM CDT 9:19 PM CDT
Astronomical Twilight 4:29 AM CDT 9:56 PM CDT
Moon 12:48 AM CDT (6/30) 1:49 PM CDT (6/30)
Length of Visible Light 15h 05m
Length of Day
14h 09m
Last Quarter, 45% of the Moon is Illuminated
Jun 30
Last Quarter
Jul 8
New
Jul 15
First Quarter
Jul 22
Full
Jul 29
Last Quarter

Hourly Weather History & Observations

Time (CDT) Temp. Heat Index Dew Point Humidity Pressure Visibility Wind Dir Wind Speed Gust Speed Precip Events Conditions
12:53 AM 71.1 °F - 68.0 °F 90% 29.77 in 10.0 mi Calm Calm - N/A   Clear
1:53 AM 71.1 °F - 68.0 °F 90% 29.77 in 9.0 mi Calm Calm - N/A   Clear
2:53 AM 69.1 °F - 66.9 °F 93% 29.76 in 2.0 mi Calm Calm - N/A   Clear
3:10 AM 69.8 °F - 66.2 °F 88% 29.76 in 0.8 mi Calm Calm - N/A   Clear
3:20 AM 69.8 °F - 66.2 °F 88% 29.76 in 0.8 mi Calm Calm - N/A   Mist
3:22 AM 68.0 °F - 66.2 °F 94% 29.76 in 1.2 mi Calm Calm - N/A   Partly Cloudy
3:25 AM 68.0 °F - 66.2 °F 94% 29.76 in 3.0 mi Calm Calm - N/A   Clear
3:53 AM 69.1 °F - 64.9 °F 87% 29.75 in 10.0 mi Calm Calm - N/A   Clear
4:53 AM 66.9 °F - 64.0 °F 90% 29.76 in 10.0 mi Calm Calm - N/A   Clear
5:53 AM 66.9 °F - 64.0 °F 90% 29.77 in 8.0 mi West 3.5 mph - N/A   Clear
6:53 AM 68.0 °F - 64.9 °F 90% 29.78 in 10.0 mi Calm Calm - N/A   Clear
7:53 AM 75.0 °F - 64.0 °F 69% 29.79 in 10.0 mi WNW 4.6 mph - N/A   Clear
8:53 AM 81.0 °F 81.7 °F 61.0 °F 50% 29.80 in 10.0 mi Variable 5.8 mph - N/A   Clear
9:53 AM 84.0 °F 84.0 °F 60.1 °F 44% 29.80 in 10.0 mi Variable 4.6 mph - N/A   Clear
10:53 AM 87.1 °F 87.0 °F 61.0 °F 41% 29.81 in 10.0 mi North 3.5 mph - N/A   Clear
11:53 AM 89.1 °F 88.0 °F 57.9 °F 35% 29.81 in 10.0 mi Calm Calm - N/A   Clear
12:53 PM 90.0 °F 88.8 °F 57.9 °F 34% 29.80 in 10.0 mi Variable 5.8 mph - N/A   Clear
1:53 PM 91.9 °F 90.8 °F 57.9 °F 32% 29.78 in 10.0 mi NW 10.4 mph - N/A   Partly Cloudy
2:53 PM 91.9 °F 90.3 °F 55.9 °F 30% 29.78 in 10.0 mi NNW 8.1 mph - N/A   Partly Cloudy
3:53 PM 91.0 °F 90.0 °F 57.9 °F 33% 29.78 in 10.0 mi Variable 6.9 mph - N/A   Partly Cloudy
4:53 PM 91.9 °F 91.2 °F 59.0 °F 33% 29.78 in 10.0 mi North 9.2 mph - N/A   Mostly Cloudy
5:53 PM 90.0 °F 88.8 °F 57.9 °F 34% 29.78 in 10.0 mi WNW 8.1 mph - N/A   Mostly Cloudy
6:53 PM 88.0 °F 87.6 °F 60.1 °F 39% 29.78 in 10.0 mi North 5.8 mph - N/A   Clear
7:53 PM 82.0 °F 83.1 °F 63.0 °F 52% 29.79 in 10.0 mi North 3.5 mph - N/A   Clear
8:53 PM 75.9 °F - 64.9 °F 69% 29.81 in 10.0 mi Calm Calm - N/A   Clear
9:53 PM 72.0 °F - 66.0 °F 81% 29.83 in 10.0 mi Calm Calm - N/A   Clear
10:53 PM 75.9 °F - 63.0 °F 64% 29.84 in 10.0 mi Calm Calm - N/A   Clear
11:53 PM 73.0 °F - 64.0 °F 73% 29.84 in 10.0 mi Calm Calm - N/A   Clear